RH
29 22 14 14 15 15 12 12 13 14 14 14 15 16 16 16 16 14 13 10 10 11 13 15 16 16 19 18 15 15 24 25 26 26 28 31 30 30 32 33 35 35 36 40 44
23 17 16 17 16 14 15 16 16 16 16 16 17 18 17 16 14 12 11 10 11 11 12 14 18 19 19 20 24 22 20 26 30 30 32 33 35 38 43 43 47 48 47 47 52
20 18 17 21 17 19 20 18 18 18 19 21 22 21 18 16 14 12 12 10 9 11 12 13 13 14 15 16 17 20 23 26 26 29 35 36 37 35 34 40 43 46 51 56 60
19 20 18 24 19 22 19 24 22 22 21 22 25 21 17 16 14 13 12 10 8 9 8 8 9 10 12 14 15 15 20 28 34 42 44 39 42 47 44 40 36 35 37 40 45
21 20 18 25 24 20 21 25 24 28 26 22 20 18 17 14 14 14 12 10 8 7 8 7 8 9 11 11 12 14 17 21 23 35 63 84 88 77 63 60 65 69 67 63 58
21 20 22 23 21 20 25 29 30 29 26 19 19 18 15 17 16 17 16 15 13 10 9 8 8 8 8 9 11 12 17 23 23 29 44 71 82 98 100 100 100 98 98 98 98
22 21 20 20 20 24 32 34 28 27 19 16 18 15 18 17 19 21 19 20 16 16 13 10 9 8 8 9 10 10 11 14 16 17 23 32 59 85 92 98 100 100 100 100 100
26 22 28 26 26 32 32 31 27 26 19 17 15 19 19 20 22 23 21 19 23 17 13 11 11 9 10 11 10 9 11 12 14 17 20 27 32 38 46 54 77 99 100 100 100
32 30 39 34 34 28 26 30 28 34 17 17 21 22 23 26 24 24 23 27 20 16 14 14 13 12 10 10 9 8 10 10 11 18 20 22 29 45 63 75 76 66 66 71 76
38 40 42 36 32 28 24 29 39 55 30 28 27 25 30 31 26 25 27 24 22 18 14 14 13 13 12 13 13 12 12 12 14 16 18 20 20 19 20 18 18 19 19 19 20
38 46 42 34 24 24 24 29 32 49 41 34 33 28 40 30 26 30 29 29 26 16 17 20 18 16 20 22 29 32 34 31 30 30 31 31 26 35 38 34 36 34 30 29 33
48 47 44 41 32 23 25 27 29 36 36 36 39 36 35 34 36 35 34 33 33 27 27 35 26 22 20 20 25 33 33 33 33 31 32 34 38 43 46 45 47 52 52 45 47
53 50 50 48 42 31 25 28 28 34 31 33 47 50 39 42 47 50 38 36 42 43 33 52 39 27 26 32 39 37 48 47 57 48 36 35 37 42 42 44 49 47 49 47 47
62 63 60 79 70 42 29 27 28 35 34 37 57 62 59 65 67 50 35 36 40 38 50 75 56 43 39 40 39 29 32 44 47 35 37 44 48 42 50 51 50 49 48 58 60
66 54 50 77 82 48 25 24 30 36 41 50 65 73 66 74 62 46 37 39 39 43 59 72 70 68 42 33 31 32 28 30 34 50 51 41 40 46 49 44 48 46 55 72 76
71 58 57 63 78 37 23 26 26 48 40 61 68 68 64 71 57 43 42 52 56 53 78 68 53 57 60 41 36 28 28 30 32 34 38 42 45 53 52 65 60 54 71 89 95
97 77 69 72 52 25 22 26 26 52 44 61 67 65 70 73 67 41 48 59 72 73 66 66 49 30 36 31 27 27 24 26 27 30 50 62 57 65 63 51 59 68 87 83 100
100 94 70 73 40 34 23 28 27 54 49 58 70 76 77 72 75 42 47 70 71 71 65 64 30 31 25 23 24 23 25 27 29 34 54 65 52 45 51 52 72 90 90 82 70
100 100 91 68 37 32 36 24 25 42 49 62 74 85 92 69 56 52 51 64 73 64 62 62 43 25 28 26 23 22 28 29 31 34 36 41 48 54 54 59 94 76 75 87 54
100 100 100 72 38 41 38 26 28 37 50 67 70 83 99 62 52 58 59 73 65 49 60 53 36 25 27 23 22 23 31 36 38 40 39 43 48 51 56 68 90 85 78 94 39
100 100 100 77 58 55 41 30 28 34 51 78 75 98 94 85 68 69 66 70 69 48 45 46 24 23 22 21 22 28 43 33 37 46 44 55 46 47 61 80 92 80 78 76 27
100 93 100 97 100 85 66 42 34 42 61 72 79 89 91 92 77 63 90 75 75 60 38 44 40 27 20 21 22 26 29 39 52 44 59 45 52 56 59 73 97 70 71 74 27
95 100 100 100 100 93 66 63 46 47 74 77 79 83 91 100 92 73 70 82 64 59 36 40 30 24 19 20 25 23 27 31 49 46 56 62 53 58 61 74 96 82 80 91 19
91 95 93 100 100 100 88 72 62 65 78 94 94 97 92 100 99 84 72 65 73 69 45 35 26 20 20 24 24 23 26 30 37 43 74 48 54 62 67 76 84 100 73 43 16
94 84 98 99 100 100 93 75 76 73 72 82 88 85 97 100 96 71 84 75 84 86 56 44 28 22 26 21 19 22 28 31 37 33 50 46 65 58 81 80 92 77 62 40 17
100 95 87 92 100 100 100 92 92 75 71 66 77 87 100 100 100 94 94 86 91 96 57 53 55 41 21 19 22 25 29 32 38 44 46 52 68 71 79 96 85 87 73 39 14
96 85 83 88 89 96 97 100 99 72 73 78 74 87 92 100 100 100 96 83 93 100 72 59 45 30 24 19 23 29 33 37 42 36 48 56 66 66 84 90 92 78 86 49 14
Wind_Speed
10 10 9 9 9 9 9 8 7 6 6 10 15 20 21 22 24 25 25 28 30 31 30 29 27 26 25 26 25 25 26 28 30 32 33 34 35 34 37 39 40 43 44 45 49
10 9 10 8 6 6 3 3 5 9 13 14 15 18 21 23 25 25 30 32 31 31 29 27 27 28 29 27 24 24 25 26 27 28 29 33 34 33 36 38 39 39 40 41 44
12 10 11 6 5 5 0 7 9 13 16 18 20 23 25 24 26 30 29 29 33 31 30 30 30 31 29 28 28 27 24 22 21 23 25 26 29 33 36 37 38 39 41 43 45
13 11 13 6 8 7 9 11 11 14 16 18 21 24 25 26 28 29 30 32 31 31 31 33 33 34 34 33 33 31 30 28 25 24 25 29 33 35 37 39 40 41 41 42 43
14 13 13 8 7 9 10 11 11 16 18 20 19 22 23 24 27 29 33 35 37 36 39 38 37 36 38 36 35 33 32 30 29 28 27 30 33 36 38 40 42 44 47 49 52
14 12 13 10 9 9 11 12 12 16 18 17 18 20 24 27 27 32 34 37 38 41 39 39 42 36 36 36 34 33 31 32 32 34 35 36 38 39 40 41 43 46 49 51 54
15 13 10 9 9 10 10 11 14 16 16 14 15 21 26 26 30 34 37 38 38 46 42 39 40 40 38 39 36 36 33 31 31 33 38 41 45 48 49 50 51 52 54 57 61
16 13 8 8 9 9 9 9 13 16 15 14 18 23 25 27 33 37 39 36 42 45 43 45 41 41 40 42 41 37 32 28 27 28 31 36 42 46 50 54 57 59 61 62 64
15 11 8 5 6 7 5 8 12 12 13 15 19 24 24 31 37 40 39 43 46 47 47 45 44 39 39 38 39 34 39 37 38 35 34 35 39 43 47 51 55 59 64 69 72
16 13 10 7 6 5 4 5 9 10 13 18 19 23 30 34 35 39 41 46 47 51 48 49 47 42 39 39 37 32 37 38 40 39 35 35 35 38 41 46 49 53 58 61 65
19 17 13 7 4 4 4 9 9 10 14 17 20 21 29 32 34 38 40 45 49 49 53 54 55 53 49 48 44 48 45 45 40 35 33 33 41 44 45 48 51 56 61 61 68
20 16 15 8 6 6 5 8 10 13 17 18 22 23 29 32 35 39 40 43 47 50 55 56 55 53 48 48 44 44 44 43 43 42 42 43 47 51 55 58 63 67 66 66 73
21 16 13 8 8 8 8 8 12 15 20 20 22 25 29 33 37 39 43 45 52 51 54 53 53 48 44 41 43 45 46 48 55 59 59 58 58 63 65 67 73 75 77 76 77
23 17 12 13 9 11 10 7 12 16 21 21 23 26 29 34 36 38 40 44 48 49 50 53 50 49 48 47 49 48 50 55 58 60 64 71 69 66 72 74 77 79 80 81 81
25 20 19 11 12 14 13 9 11 15 20 23 23 26 31 36 38 39 41 45 47 49 51 50 49 48 51 53 53 55 57 59 64 68 73 74 74 73 80 85 93 90 88 95 98
25 21 20 13 16 14 15 13 13 16 20 25 26 27 33 35 35 37 42 45 51 50 47 48 54 52 52 57 56 57 58 66 67 73 75 80 82 84 86 96 94 88 94 107 110
22 23 22 14 15 15 17 15 15 18 21 24 29 30 34 33 35 38 42 45 51 50 50 49 55 52 55 53 56 60 68 70 71 75 81 86 89 92 93 91 98 101 105 114 111
25 25 23 20 16 17 19 19 19 20 23 25 29 33 37 35 35 38 40 45 50 51 50 51 53 57 52 56 58 60 66 71 78 82 85 89 91 93 101 99 104 110 125 119 112
26 25 25 21 17 18 21 23 22 22 24 27 30 33 38 39 40 38 41 47 52 51 52 52 56 53 55 60 65 64 72 76 79 80 84 90 94 99 98 106 110 122 132 125 123
33 28 25 21 18 19 21 22 21 22 25 28 33 35 38 39 43 39 43 47 53 57 54 50 55 55 63 63 65 69 75 83 87 91 92 95 101 104 108 112 115 128 132 128 114
37 33 29 27 24 23 23 24 26 27 29 29 32 36 39 41 44 40 42 49 54 59 53 52 52 59 58 63 67 75 82 82 90 98 104 108 105 107 110 119 121 129 141 136 109
37 36 31 28 24 24 24 26 28 28 30 29 31 35 39 41 42 45 43 48 54 57 54 52 55 55 63 64 72 80 81 84 93 97 105 105 110 113 116 122 129 137 134 140 107
41 36 36 32 26 27 27 27 28 28 29 31 35 38 42 45 44 46 48 46 52 58 52 56 57 59 60 65 73 77 85 91 95 98 100 107 115 122 118 126 134 139 149 146 101
44 39 37 37 27 26 28 28 29 31 30 33 38 40 43 48 49 49 51 47 52 58 56 59 56 52 62 71 76 82 89 92 97 102 107 111 114 118 120 126 134 137 144 128 98
43 41 39 33 31 25 26 28 30 33 31 36 37 40 45 49 50 50 51 48 52 58 58 58 59 63 71 74 79 82 88 95 98 105 108 113 118 118 124 128 136 140 145 126 95
43 41 37 35 33 29 25 31 32 33 31 35 36 39 45 50 50 50 52 51 52 59 62 61 63 71 67 72 81 89 90 95 104 108 111 112 116 118 126 132 136 144 155 127 93
46 41 40 37 34 36 31 31 32 32 33 36 38 42 46 49 49 50 55 55 53 60 64 66 61 67 67 73 79 86 92 97 105 106 112 114 118 119 126 133 135 147 146 133 95
Wind_Direction
201 202 198 210 230 251 266 291 313 318 327 338 334 339 335 335 334 334 328 329 328 325 319 318 320 319 324 322 315 305 291 281 275 271 271 268 265 264 263 265 265 267 268 268 268
189 196 201 220 241 254 284 17 359 340 335 332 331 333 335 334 334 338 340 342 342 338 336 327 324 326 326 321 317 311 304 295 287 283 278 276 275 272 272 270 270 270 272 274 275
196 200 191 219 212 215 259 341 338 338 334 329 329 334 333 330 337 345 353 357 355 347 342 334 330 327 325 320 315 312 310 308 308 296 286 285 281 277 274 273 274 276 277 276 275
198 201 196 219 226 243 316 330 328 331 324 320 327 334 334 333 345 352 358 356 358 355 347 340 334 332 327 323 319 317 316 314 312 308 302 293 288 287 287 287 284 280 277 273 273
204 202 207 226 255 285 301 322 329 332 329 326 332 334 338 342 349 355 1 4 4 1 356 351 346 338 333 332 327 319 312 309 306 299 290 287 285 285 285 286 287 286 285 283 282
206 210 217 234 267 280 291 304 318 331 326 327 333 343 342 345 349 351 357 359 3 2 360 357 351 346 339 332 328 326 316 306 303 297 289 281 281 283 286 287 287 287 288 287 285
205 215 232 250 263 263 286 298 329 333 331 328 346 342 346 350 345 347 354 356 357 355 2 360 359 350 342 337 331 324 318 315 312 303 295 292 289 286 285 283 283 282 282 281 280
213 231 250 249 250 252 269 296 333 345 339 340 345 348 352 348 349 350 353 358 353 356 2 359 357 351 345 343 341 334 328 327 320 312 310 306 302 300 298 297 296 294 291 290 288
218 235 219 224 245 259 281 332 345 343 339 344 343 347 345 344 351 347 352 352 352 360 357 357 354 354 352 350 346 337 332 333 336 340 336 326 318 310 305 301 298 297 296 294 292
216 220 231 244 237 224 359 346 341 336 337 345 337 343 345 346 345 347 350 352 353 357 358 357 359 357 354 358 357 353 342 343 339 335 329 323 321 318 314 312 306 303 300 297 293
216 220 225 223 190 231 331 331 351 347 339 339 337 338 346 348 347 344 349 352 353 359 358 358 359 357 356 357 357 352 351 349 347 341 330 332 324 324 320 316 318 313 306 300 296
208 213 215 211 228 242 284 319 341 354 347 341 345 337 347 349 347 348 346 345 349 352 356 357 359 358 359 360 358 353 354 353 348 342 337 340 339 335 330 328 326 324 320 310 307
209 206 208 204 232 245 259 311 344 358 352 349 351 351 352 347 346 341 343 344 344 346 353 352 358 357 360 0 357 354 353 350 350 348 346 343 345 343 340 335 330 323 318 313 310
212 220 229 212 235 265 272 303 340 358 355 354 354 351 348 342 341 344 345 340 344 347 349 350 353 352 347 346 347 346 349 350 349 347 344 345 347 341 337 331 327 322 321 321 321
221 230 245 260 237 274 284 283 333 345 356 357 355 352 340 342 344 346 345 344 349 349 347 347 348 345 343 347 345 348 349 348 346 344 345 342 343 341 337 335 329 325 330 331 327
228 239 246 241 239 268 287 292 311 329 338 353 357 350 346 346 346 346 345 349 350 348 345 343 344 340 339 343 342 346 346 343 345 345 344 342 344 341 336 331 328 324 336 334 331
224 230 239 232 244 269 295 299 315 323 333 342 348 350 346 345 342 344 346 347 346 343 343 338 341 343 342 345 347 346 345 346 342 343 345 342 340 338 334 331 334 335 337 336 334
227 236 242 243 256 271 291 295 307 316 321 328 337 345 344 342 339 339 345 349 348 345 340 340 343 344 349 351 349 347 344 345 344 345 344 342 341 338 335 332 340 340 343 337 332
227 229 237 246 260 267 289 292 298 306 316 325 326 336 338 339 339 335 343 344 346 343 343 340 342 345 347 346 347 348 345 345 344 342 342 340 338 339 337 342 346 346 346 343 337
228 230 239 245 248 265 282 289 293 305 313 318 324 326 333 337 339 334 336 340 344 343 342 342 342 345 344 347 346 345 344 344 345 345 345 346 342 340 339 340 346 345 346 344 335
229 235 234 246 259 261 268 288 295 303 305 315 324 328 328 334 338 333 332 334 338 344 343 342 346 345 346 347 344 342 342 343 341 341 341 344 343 340 339 344 349 347 349 345 336
229 238 238 237 251 253 265 281 290 303 306 309 321 326 329 331 334 338 329 333 337 340 342 339 343 344 344 344 342 343 341 338 340 342 343 345 344 342 344 346 348 347 350 347 340
231 237 239 239 252 257 264 277 286 299 306 306 314 321 325 327 329 336 334 336 342 341 339 342 345 342 341 345 337 339 339 340 338 342 342 341 340 341 346 348 348 350 349 347 339
234 236 241 241 252 261 270 275 286 298 302 303 311 313 321 324 330 334 331 336 339 339 338 342 341 341 339 336 336 339 338 339 338 338 341 342 341 341 347 351 350 351 350 347 341
233 235 236 246 248 264 274 276 287 300 295 300 305 312 318 323 326 331 328 332 338 340 339 337 339 335 334 336 337 338 340 337 337 338 341 340 341 345 350 351 351 351 351 348 343
231 230 237 246 250 260 281 282 285 297 296 299 306 311 316 322 325 327 328 327 330 337 337 337 335 337 338 342 338 337 337 335 335 340 342 344 343 348 351 350 351 353 350 349 345
232 235 236 246 253 261 279 285 285 294 297 298 304 308 315 320 321 322 330 329 325 333 334 335 336 339 335 336 337 337 339 342 339 344 341 343 342 350 351 351 352 352 349 350 345